GFSGBSN_500_spd_000.txt.gz
Wind_Speed
18 18 19 17 17 17 17 19 20 19 18 20 20 20 18 17 20 31 35 37 36 30 27 24 19 15 13 10 4 3 6 8 13 21 28 36 28 28 26 15 6 10 5 8 14 16 13
19 19 19 20 22 22 20 18 20 22 22 20 21 21 21 21 20 19 32 35 37 36 32 29 25 20 18 15 12 7 6 10 15 27 31 38 29 30 26 19 17 6 9 12 10 6 5
21 19 19 19 20 24 23 22 20 20 22 23 23 23 22 23 24 22 19 32 36 38 36 34 31 26 23 18 16 11 9 10 19 22 33 37 30 29 27 22 13 19 13 12 9 7 12
21 23 22 23 25 25 26 23 23 22 22 21 22 25 26 25 24 26 25 21 34 37 38 37 36 33 28 23 20 18 14 10 15 23 28 35 36 30 29 27 22 21 23 8 11 12 10
24 24 23 23 24 26 29 28 24 23 23 23 22 22 23 27 29 27 27 27 25 36 39 39 39 38 35 29 29 25 19 18 16 25 25 29 30 30 27 26 28 28 23 13 6 1 7
24 23 23 25 23 21 24 28 29 27 25 23 22 24 25 26 27 32 31 30 31 25 38 38 36 41 40 36 36 30 24 24 21 27 29 27 27 25 23 26 27 28 17 13 3 10 9
25 25 24 23 22 24 25 26 29 30 30 28 27 26 27 29 27 29 35 34 34 30 21 37 40 42 44 42 38 34 31 27 29 28 25 26 28 23 17 17 19 21 15 5 8 10 13
27 27 27 25 27 27 26 28 29 32 31 31 28 29 30 30 31 30 34 36 36 35 25 28 40 39 46 46 44 41 39 35 33 26 26 28 29 22 17 23 27 24 20 12 3 10 21
27 29 28 30 29 29 30 30 31 32 33 34 31 30 31 30 32 34 33 33 37 37 31 26 35 41 41 48 45 46 42 37 32 30 26 25 22 28 26 31 31 25 22 20 4 16 23
29 29 30 31 31 33 32 32 32 34 34 34 34 34 33 33 32 35 35 32 37 38 31 22 26 30 40 43 48 48 46 41 39 34 28 28 31 36 33 30 32 32 22 11 14 24 33
35 34 30 31 32 32 33 36 35 35 35 34 35 34 34 32 32 34 34 33 36 36 26 20 22 35 34 39 42 45 48 47 42 36 36 29 35 35 36 30 36 30 23 16 19 22 23
38 37 35 34 33 32 32 33 35 36 37 37 38 38 34 32 30 33 35 33 34 33 19 19 18 19 30 31 42 45 49 51 44 42 42 35 35 36 33 32 39 35 27 29 23 24 27
42 39 38 36 36 35 34 34 36 37 36 38 39 42 35 31 32 31 33 35 34 31 17 16 13 9 6 21 32 42 46 53 53 51 48 43 42 39 36 38 39 42 33 35 38 33 32
44 43 41 41 42 36 37 36 35 38 39 39 39 40 36 32 35 30 35 35 35 23 15 20 20 23 21 5 13 29 40 50 53 51 49 46 46 43 41 41 36 38 36 36 40 49 43
52 52 49 47 47 43 39 39 38 37 39 39 39 40 36 39 35 31 34 37 29 18 24 29 28 26 22 14 7 11 33 43 49 53 53 49 46 42 42 39 33 33 41 34 33 39 27
57 58 55 54 53 48 46 44 41 38 39 39 39 39 39 38 32 35 34 32 26 18 33 38 35 30 29 28 25 22 14 34 41 49 48 45 43 40 35 31 28 30 23 29 39 31 31
59 58 59 61 58 52 48 45 42 39 40 41 40 37 43 36 35 37 33 30 24 22 34 47 43 38 25 29 28 32 21 15 31 41 47 41 41 39 39 38 31 28 31 27 28 26 37
63 66 68 66 63 54 50 48 44 42 42 41 40 39 38 38 36 37 34 33 29 28 31 49 49 41 31 33 31 17 30 17 16 31 43 42 41 43 43 34 30 25 34 35 35 39 32
70 72 72 67 59 53 50 48 45 42 42 42 39 37 39 40 38 36 35 36 34 31 37 52 50 44 34 32 29 16 23 39 33 22 36 36 44 41 41 37 29 24 31 35 34 37 34
75 71 67 58 53 51 48 45 44 42 42 42 40 39 45 42 38 39 41 40 38 33 39 46 54 43 39 35 30 25 31 38 40 28 15 15 47 44 44 38 33 35 31 27 28 36 31
66 63 58 52 47 46 45 44 43 42 41 41 40 42 41 44 39 39 42 41 41 38 41 40 56 50 39 39 31 32 33 35 35 36 36 21 48 44 43 32 32 37 37 31 30 32 29
62 59 55 53 51 49 48 45 45 45 43 43 42 40 41 40 43 39 40 41 45 42 44 43 53 62 38 44 40 33 36 39 36 30 36 37 30 48 47 37 23 31 40 36 25 26 27
65 61 56 51 49 47 43 44 46 46 46 45 46 46 44 41 43 42 41 40 43 47 45 47 54 66 53 44 45 42 44 39 39 36 39 41 32 50 46 38 33 35 44 42 38 40 29
52 50 47 43 41 42 45 46 48 47 45 42 40 42 45 42 43 45 43 41 42 45 45 50 54 59 56 50 48 47 53 43 38 30 36 41 39 35 49 40 42 37 40 28 25 28 26
53 50 46 43 43 44 44 44 45 45 43 42 41 36 38 43 43 43 44 44 42 40 48 50 53 56 59 53 54 56 51 51 44 32 34 38 45 41 44 47 43 44 38 33 34 35 33
52 47 44 42 41 42 42 39 37 36 36 37 39 37 36 40 44 40 43 44 41 40 43 50 50 51 61 61 62 46 57 47 44 37 36 40 37 50 49 46 48 50 50 48 41 39 38
45 41 40 39 40 39 36 34 34 34 34 35 37 37 36 35 41 41 45 47 43 41 46 50 52 48 48 54 59 53 46 56 56 47 43 41 46 39 42 49 49 49 51 52 50 52 51
39 39 38 37 34 31 30 31 33 34 33 34 35 35 35 33 38 42 43 51 48 46 46 46 43 47 51 52 51 59 53 41 42 50 46 51 48 44 44 42 46 49 50 52 55 51 50
35 35 34 33 29 29 28 28 30 32 32 32 34 35 33 31 36 40 40 45 48 49 49 47 44 44 43 33 39 45 62 48 38 48 51 48 51 55 54 51 48 47 46 49 54 54 52

GFSGBSN_500_spd_006.txt.gz
Wind_Speed
15 15 16 17 18 19 20 20 21 20 21 22 23 22 20 20 20 21 21 20 20 26 29 29 26 23 18 17 12 10 8 6 11 17 28 28 23 19 16 17 13 10 6 8 10 11 12
16 17 19 20 21 21 21 22 22 24 24 24 23 23 22 22 22 22 22 22 21 21 25 31 33 30 25 23 17 15 10 10 14 18 30 28 22 23 23 17 13 11 9 8 9 10 12
19 19 22 23 24 24 24 24 24 25 25 25 23 23 24 23 23 24 24 22 23 23 23 22 32 33 30 29 23 21 15 14 18 19 31 32 31 28 21 19 17 12 10 10 11 13 16
21 22 22 23 24 25 26 26 28 27 26 25 25 25 24 24 24 24 24 23 25 23 23 25 24 32 33 32 30 28 22 19 19 23 31 38 39 34 26 19 16 15 19 11 10 14 16
20 20 21 22 22 24 26 27 28 27 25 25 27 26 28 27 24 25 25 22 24 25 24 25 27 25 34 34 36 33 31 25 23 25 28 35 35 34 32 25 17 13 13 20 13 12 14
23 24 25 25 25 25 26 26 27 28 30 28 28 30 32 30 27 28 31 28 26 27 25 26 26 28 27 36 40 37 36 33 30 30 31 30 33 32 31 25 15 9 17 20 15 9 13
26 26 26 26 27 28 28 27 27 28 30 31 31 30 31 33 32 32 33 32 30 29 27 29 29 29 30 30 40 42 41 40 37 34 30 29 30 23 22 20 20 12 14 20 17 18 13
31 31 30 30 29 29 30 30 30 30 31 31 33 34 34 35 32 33 35 36 33 32 27 32 33 28 29 36 37 43 47 45 43 38 33 32 23 28 33 30 24 17 20 24 19 14 10
35 37 36 34 31 33 33 32 31 33 32 32 31 33 34 34 34 37 34 35 35 33 29 18 33 36 28 36 26 41 48 48 47 44 39 32 25 37 38 32 28 20 20 23 16 14 13
38 38 39 39 38 36 35 35 35 35 34 35 33 32 33 34 33 35 34 34 37 36 32 24 30 31 33 36 31 34 45 51 50 48 44 37 35 43 39 36 31 27 13 20 23 21 18
42 42 41 41 43 41 40 39 40 40 38 34 35 34 32 35 36 35 35 35 37 35 34 25 29 33 31 34 31 33 40 52 54 51 51 44 40 45 42 37 33 25 19 20 23 28 29
42 42 44 44 45 46 45 43 43 41 41 41 36 35 35 35 36 38 38 36 38 39 37 29 28 32 32 30 25 35 42 47 52 53 55 51 46 49 43 38 37 27 35 31 34 37 38
48 48 48 47 49 51 50 48 47 45 44 44 43 42 34 35 39 40 40 41 39 40 35 31 28 30 31 29 24 34 42 48 54 60 59 56 52 51 51 48 47 38 39 42 42 42 42
54 54 54 55 57 56 55 54 51 49 49 47 45 44 40 36 38 40 40 42 40 37 36 28 32 30 27 27 25 33 40 44 50 56 57 59 60 55 54 53 51 42 41 46 48 43 41
60 59 59 60 60 59 59 58 57 56 54 49 43 42 42 41 41 41 43 45 39 39 33 31 31 31 29 29 28 36 42 40 45 50 56 60 60 58 57 53 51 50 48 46 47 46 45
63 61 62 62 61 61 62 61 62 62 57 55 49 48 44 41 38 44 42 38 43 43 35 31 33 35 34 35 35 37 43 42 40 41 45 53 56 59 59 56 58 58 51 50 53 52 50
66 66 69 67 66 66 65 66 64 64 61 58 55 52 48 45 42 43 43 40 47 40 37 37 38 41 38 39 41 41 44 44 40 35 38 46 53 55 60 62 58 64 62 58 55 56 52
74 76 77 78 74 72 69 67 68 65 62 62 59 56 51 49 49 47 45 47 48 43 42 43 42 43 40 46 46 45 43 45 34 32 36 40 41 54 56 58 58 59 63 58 58 58 57
82 83 81 77 73 71 70 69 70 70 68 65 65 61 55 50 51 50 50 52 52 47 44 47 48 45 43 44 50 51 46 37 31 31 32 36 47 50 52 49 57 62 63 62 60 58 61
83 77 72 70 69 66 67 69 69 70 69 67 61 56 54 48 53 55 55 55 53 49 47 48 47 44 44 44 47 53 47 38 34 33 40 38 49 53 60 56 54 62 63 65 60 61 56
79 77 74 71 69 68 67 67 67 65 64 60 55 52 47 47 53 59 59 57 54 52 50 49 49 46 44 47 43 46 52 46 37 38 37 38 41 47 47 46 47 52 55 57 58 53 54
72 68 63 62 58 57 56 56 56 58 58 56 53 50 49 47 52 55 59 59 56 54 50 49 50 47 47 49 44 46 52 46 47 41 38 35 36 32 35 40 44 51 53 53 58 54 48
71 68 66 63 61 57 52 50 49 46 45 45 47 49 51 50 54 57 59 60 57 54 52 50 50 48 49 49 49 41 53 55 50 50 38 37 39 33 30 30 40 52 51 52 48 49 44
72 66 61 57 54 50 48 47 47 45 44 47 46 47 54 53 49 52 57 60 58 55 52 49 50 47 48 51 48 43 46 55 54 41 49 36 41 37 33 31 40 45 47 49 46 46 41
54 51 50 49 50 50 49 48 48 47 46 46 47 47 49 50 46 46 52 55 55 52 51 48 49 47 47 52 49 43 44 44 59 50 54 40 35 36 40 38 35 38 46 53 51 43 41
39 38 39 39 38 37 38 41 46 47 47 46 46 46 44 41 38 39 45 49 50 49 49 45 47 46 46 50 50 46 46 45 55 67 48 39 32 37 42 40 37 38 45 53 45 41 39
34 32 30 30 30 30 31 34 34 35 39 42 40 40 38 33 30 38 38 44 43 46 44 42 44 45 46 47 48 46 47 46 48 40 38 39 38 32 39 42 39 37 39 33 44 48 30
32 31 29 28 29 31 31 29 27 28 29 30 30 32 29 27 30 35 35 37 40 41 40 40 41 42 41 45 47 46 46 45 42 41 53 22 26 20 27 39 38 36 36 39 38 40 37
30 26 26 25 24 21 18 19 20 20 21 22 25 25 29 28 27 32 32 32 34 36 38 39 39 42 34 36 46 46 43 38 37 37 33 53 27 26 41 42 35 33 32 35 38 40 42

GFSGBSN_500_spd_009.txt.gz
Wind_Speed
15 14 14 15 16 18 19 20 20 20 20 20 21 23 21 19 19 20 19 17 19 17 15 21 25 23 19 18 18 10 10 8 13 18 20 26 24 21 18 18 18 12 9 13 12 11 12
15 16 17 17 17 19 20 20 20 22 21 21 22 21 21 22 20 20 19 18 19 18 19 17 21 26 24 26 19 19 13 11 14 16 25 28 28 23 20 19 17 12 11 14 12 12 12
17 18 18 18 19 18 19 20 21 22 23 23 21 22 21 22 23 24 21 16 18 18 19 19 19 19 26 30 26 26 20 15 15 18 23 31 32 29 22 22 17 16 15 14 14 12 14
18 18 17 18 19 19 20 21 23 24 25 24 22 22 24 22 23 25 25 18 16 17 18 20 20 19 20 28 29 31 26 21 19 22 24 33 33 33 26 21 22 17 18 17 15 15 14
19 20 20 20 21 24 23 23 22 23 24 25 24 26 28 27 28 27 26 22 21 21 21 21 21 21 22 21 30 33 32 29 26 26 28 29 29 30 29 25 23 21 19 19 18 19 16
24 24 24 23 23 23 24 25 25 25 25 25 26 27 27 29 28 29 29 27 26 26 26 24 23 22 24 24 25 34 37 35 32 32 31 30 27 29 24 21 16 17 18 19 19 16 18
27 29 28 28 29 29 27 26 26 27 28 28 27 28 29 29 30 32 32 31 29 27 28 27 27 23 26 26 26 31 38 40 39 38 34 31 25 20 16 17 19 17 19 21 19 21 19
33 34 34 34 34 33 32 31 30 29 29 29 28 30 31 30 30 30 32 33 31 29 24 26 28 28 27 30 23 29 37 44 44 41 38 36 27 26 29 27 23 24 26 24 24 23 18
36 37 38 38 38 36 34 34 34 34 33 31 31 32 32 34 32 31 30 32 33 34 31 24 28 29 30 28 24 31 31 41 46 46 43 41 31 35 36 31 25 24 24 33 26 25 21
34 36 36 36 37 37 38 37 38 38 37 37 37 36 34 35 35 35 32 30 30 32 32 24 28 28 29 30 25 28 35 36 46 48 48 47 38 40 39 36 29 20 22 32 31 29 23
39 39 41 41 42 42 44 44 42 41 43 42 41 39 38 37 38 37 36 34 33 31 32 28 29 29 27 29 29 28 33 36 44 49 53 50 43 44 45 38 33 26 21 33 29 30 30
45 46 46 47 48 50 50 50 50 49 48 46 45 45 40 40 41 41 39 38 37 34 34 32 31 33 32 34 33 31 29 38 40 47 54 53 49 51 47 46 42 36 32 30 33 35 40
49 52 52 54 53 54 56 56 55 54 54 53 51 50 46 42 43 43 43 42 43 41 36 35 32 33 32 33 34 32 30 34 41 50 56 56 54 55 53 54 54 47 43 41 39 40 43
59 58 59 59 61 62 60 58 57 56 56 55 54 53 51 48 46 48 48 47 48 44 38 40 35 37 38 34 37 33 33 31 40 48 55 56 58 54 60 58 55 52 48 47 43 41 35
63 64 65 67 66 64 63 59 57 56 55 55 55 56 55 52 49 48 50 51 48 45 44 44 35 37 39 36 33 34 31 32 36 44 55 57 59 59 64 60 56 58 56 46 45 45 39
68 70 70 70 70 66 63 63 62 62 62 61 59 60 59 55 51 51 53 53 50 47 45 44 40 39 40 40 34 34 33 31 35 41 50 54 56 62 64 67 64 60 56 54 52 54 54
72 73 73 71 71 70 70 70 73 73 69 70 67 64 63 58 55 57 58 55 51 48 49 49 44 41 42 42 37 35 36 32 31 40 47 48 56 58 70 72 69 67 65 63 59 56 53
80 82 81 81 81 80 80 80 77 76 71 66 66 65 61 58 56 57 55 52 52 49 52 52 50 44 43 43 42 40 36 34 34 37 43 43 46 57 64 72 75 69 67 63 63 59 58
92 93 92 93 89 83 80 77 74 70 70 65 63 65 64 62 60 59 58 57 56 53 54 55 52 49 45 46 48 42 39 36 36 36 39 41 47 48 57 63 73 75 72 68 69 65 65
97 96 92 86 81 81 76 69 66 64 64 63 63 62 65 64 63 63 60 58 57 57 57 57 56 51 47 48 48 44 45 40 36 32 36 43 45 51 54 61 62 69 73 74 73 74 67
92 89 86 79 74 74 71 68 65 62 61 62 63 61 59 56 57 56 57 59 58 59 59 59 58 53 47 48 49 50 48 41 41 37 34 43 47 44 50 53 57 61 63 68 71 69 69
79 68 62 63 63 61 62 61 56 55 57 57 58 56 56 51 52 54 54 58 60 62 62 60 59 53 49 52 50 51 48 47 42 41 39 42 46 41 43 44 42 56 60 59 64 64 65
65 62 59 59 59 56 54 54 56 53 51 53 57 58 56 51 50 51 55 59 59 62 62 59 56 53 51 52 51 50 50 46 47 45 46 46 44 43 43 35 40 48 51 56 57 60 61
59 56 54 49 45 43 42 44 46 50 49 46 43 44 48 50 48 50 51 54 57 59 58 55 54 52 50 51 51 51 52 45 44 49 49 49 48 43 37 38 44 44 48 53 53 56 57
53 49 45 43 38 35 33 33 35 36 38 43 45 45 44 41 40 41 48 50 53 55 56 50 52 51 51 49 51 50 49 45 45 49 53 53 53 53 41 38 42 45 43 49 53 54 54
49 46 41 38 34 32 30 29 27 29 31 29 34 42 43 42 38 36 36 43 46 47 53 47 46 50 49 49 51 51 50 48 47 46 57 59 60 54 48 33 42 42 34 37 42 49 44
43 39 36 35 33 28 26 26 27 26 25 26 27 29 36 39 34 33 30 34 36 45 47 43 43 49 49 47 49 47 49 49 48 47 47 54 56 59 49 34 38 36 27 29 37 42 40
36 35 34 30 26 24 24 24 26 24 21 21 18 21 22 32 27 30 30 31 30 34 41 37 41 46 46 45 48 45 45 50 49 46 42 38 42 50 40 38 39 42 29 29 32 33 35
33 30 29 26 22 20 19 19 15 15 14 13 14 16 17 18 24 27 27 30 30 34 35 36 40 44 43 42 46 41 42 47 48 43 39 38 39 43 31 47 44 39 33 30 29 30 37

GFSGBSN_500_spd_015.txt.gz
Wind_Speed
10 11 12 13 13 14 14 14 13 11 11 12 15 16 15 14 14 13 14 14 15 15 14 14 12 12 16 20 17 11 13 11 12 21 24 25 25 21 24 21 14 12 11 8 7 9 9
11 11 11 11 12 13 14 14 14 13 14 14 15 15 16 15 14 13 14 16 16 17 15 14 13 14 15 14 19 19 16 16 14 19 27 24 24 23 27 25 15 9 12 10 9 10 10
15 14 14 16 16 15 15 16 17 17 18 19 18 17 17 17 17 16 15 16 17 17 16 13 12 13 14 14 13 22 21 19 18 17 25 26 28 29 24 23 23 18 13 10 11 13 13
16 17 18 19 19 19 20 20 19 19 20 20 21 21 19 19 19 18 16 16 16 16 17 16 16 15 15 13 15 14 22 24 23 21 23 31 32 29 28 25 24 20 14 8 15 16 14
17 18 19 21 22 22 21 22 23 23 23 23 23 22 20 21 22 20 18 17 17 17 17 19 21 20 20 17 14 15 16 24 27 26 25 29 30 31 30 27 25 22 14 13 19 19 16
20 22 23 24 25 25 24 23 23 24 24 24 25 27 26 25 23 23 22 21 20 18 18 21 22 23 20 19 16 14 16 17 25 30 30 29 34 35 34 32 27 19 16 15 18 25 21
21 21 22 22 24 24 25 25 25 26 24 23 23 26 28 27 29 27 25 25 24 22 21 22 20 23 21 20 18 17 14 17 19 29 33 32 33 31 30 29 26 18 17 19 19 25 23
22 22 23 25 27 26 26 26 27 28 29 29 28 29 30 29 30 31 31 30 29 27 22 24 24 20 23 24 19 19 20 17 19 20 32 38 35 31 34 34 33 25 23 20 17 28 22
27 29 29 30 31 32 31 29 28 29 31 33 32 31 33 34 32 32 33 34 34 34 30 28 27 23 24 23 22 22 20 20 18 22 26 34 31 33 38 40 37 31 27 23 22 29 20
36 38 37 35 33 32 33 35 36 35 35 35 36 36 35 37 36 37 37 38 36 37 36 31 33 30 26 22 24 25 22 23 22 21 24 28 34 38 40 39 40 34 30 26 25 34 27
38 39 40 39 39 39 39 39 38 37 39 41 41 40 40 39 41 41 41 42 42 40 40 41 36 31 31 27 26 26 24 25 22 19 26 23 30 38 42 39 42 35 30 28 28 31 22
45 45 46 48 49 50 49 49 48 46 45 44 45 46 44 43 44 48 46 46 46 47 49 45 41 34 31 30 30 29 27 26 26 27 26 25 27 34 40 42 45 38 31 32 31 31 37
53 55 57 57 59 57 56 56 56 56 55 55 51 49 50 48 47 45 48 50 51 53 49 49 45 40 36 37 35 34 32 31 30 29 30 26 28 29 37 45 46 46 41 37 38 40 40
55 57 59 62 60 61 64 66 67 64 61 59 55 53 53 51 51 50 49 50 51 53 53 53 48 44 44 37 39 40 38 37 35 35 34 34 34 32 32 39 46 50 47 44 43 36 35
61 62 64 67 66 67 70 71 68 65 64 63 60 58 55 55 54 55 53 55 52 50 51 55 51 49 49 45 43 44 45 42 40 36 37 35 38 32 34 36 46 47 54 43 38 33 34
64 68 70 71 73 76 76 76 76 76 75 75 69 64 63 61 59 62 64 59 56 54 55 55 55 51 49 49 48 47 49 46 45 43 39 37 32 33 33 37 42 50 43 48 50 45 41
73 76 79 80 82 84 85 85 87 89 86 84 83 76 71 57 58 65 67 62 64 62 61 61 60 57 53 43 42 48 49 43 46 44 42 38 39 32 30 40 38 47 55 47 45 48 45
82 86 89 91 91 91 93 92 93 93 90 88 76 71 71 55 57 62 64 67 69 70 68 68 66 65 57 44 44 38 48 37 33 43 43 42 39 40 34 33 35 39 42 49 49 51 50
91 94 95 95 91 86 82 83 84 85 81 76 74 69 59 64 59 58 63 69 73 76 76 72 75 71 60 59 50 49 49 38 46 48 36 38 43 36 35 30 36 42 43 46 51 43 52
95 94 92 88 84 85 83 81 81 78 75 73 68 62 55 60 57 59 65 72 77 78 79 82 81 77 67 64 64 57 54 40 39 52 49 46 36 43 37 36 29 33 37 43 44 55 50
92 91 90 88 86 85 78 73 69 66 62 59 53 52 55 55 56 62 70 71 73 79 84 80 80 77 70 65 63 66 60 48 48 49 51 49 48 39 41 32 26 31 34 38 47 47 52
95 93 88 78 69 63 60 54 51 48 44 44 40 40 42 43 52 55 49 49 60 69 70 83 74 60 61 48 57 58 49 46 45 41 51 48 49 43 39 30 34 32 32 36 37 45 50
82 72 66 60 55 48 46 45 45 43 39 36 34 33 32 30 34 44 51 50 49 54 65 61 57 67 68 53 49 53 48 43 50 42 40 50 44 47 47 36 31 34 38 37 38 39 40
71 65 58 53 46 42 39 38 35 34 31 30 28 27 25 22 23 29 36 45 49 45 49 58 62 56 61 63 74 69 62 56 44 52 54 52 52 40 38 33 38 39 30 33 37 41 40
56 47 41 38 36 33 30 28 30 28 28 27 25 24 23 21 22 24 28 33 37 47 44 48 48 57 55 68 69 64 64 66 68 63 56 44 51 43 37 38 37 39 33 40 36 35 34
36 31 30 27 25 21 23 23 24 24 23 21 18 20 21 19 20 19 23 22 24 32 46 41 40 43 60 50 65 65 63 62 57 52 50 57 51 42 37 42 40 32 46 28 31 41 38
33 27 21 16 17 17 20 21 21 21 19 17 19 22 23 21 16 21 24 24 24 20 24 27 34 34 44 63 49 54 59 47 46 54 56 57 57 54 45 39 35 44 44 44 40 34 30
23 18 16 12 12 16 18 16 16 14 15 15 17 17 19 16 13 21 22 23 27 26 22 18 26 27 33 38 52 55 35 38 42 35 51 56 57 50 41 42 40 42 43 45 37 41 31
23 18 14 11 15 15 13 13 14 15 13 11 11 9 12 16 12 17 20 22 20 22 26 24 28 23 33 25 33 45 32 43 38 39 33 50 53 41 36 38 48 47 45 40 30 32 28

GFSGBSN_500_spd_021.txt.gz
Wind_Speed
12 13 13 13 13 13 12 12 12 13 13 13 13 13 14 14 14 13 13 13 12 12 11 9 7 7 6 4 10 15 13 12 10 12 15 18 19 20 18 19 17 18 9 8 6 14 20
14 14 14 14 14 15 15 14 14 13 13 14 14 15 15 15 14 13 13 14 13 11 11 8 7 5 6 5 6 12 16 14 13 11 17 18 19 21 24 23 20 19 13 6 5 13 20
14 14 14 14 14 16 17 17 17 16 15 14 14 13 11 11 12 14 14 14 13 12 11 9 8 5 5 5 5 9 10 18 17 14 15 18 23 31 27 25 20 20 19 14 13 15 16
16 15 15 14 15 17 17 18 18 18 19 17 17 15 12 12 11 13 14 14 14 14 12 12 10 8 11 9 5 7 10 14 21 19 17 19 25 25 29 23 26 21 23 22 15 10 17
16 16 16 17 18 19 19 19 19 19 19 18 17 16 15 14 15 15 15 16 15 15 15 14 12 12 14 10 11 7 9 11 19 24 23 21 23 24 27 27 25 24 18 17 12 20 15
18 18 19 20 20 20 19 19 19 20 21 21 21 21 20 18 19 20 19 19 17 16 16 18 13 14 13 13 11 10 9 9 13 22 28 26 23 24 24 25 21 19 18 16 13 14 18
20 21 22 22 21 21 24 25 26 25 23 21 23 25 25 25 24 23 26 25 22 21 18 19 16 15 17 13 12 13 12 11 11 15 20 28 29 22 19 17 15 20 21 16 10 19 27
28 28 27 27 29 30 31 31 31 29 27 26 24 24 26 28 24 26 26 26 25 27 22 24 23 14 20 18 16 15 16 13 13 13 17 21 22 25 23 24 21 23 18 20 16 28 31
34 35 36 37 37 38 37 36 36 35 34 33 30 27 26 30 29 29 29 27 30 30 26 20 29 25 23 22 18 18 19 16 15 15 16 16 12 24 28 29 26 25 24 20 26 24 32
38 38 39 39 39 40 40 40 40 41 41 41 39 37 35 35 36 34 36 31 37 35 38 24 31 29 26 27 21 20 22 20 21 17 19 19 19 24 29 32 30 27 22 23 27 19 24
43 43 43 42 42 43 42 41 42 42 42 43 44 46 42 42 42 42 41 37 37 37 46 34 34 30 28 29 25 25 26 26 21 21 26 14 22 22 24 29 33 23 27 29 31 25 27
48 48 49 49 49 48 48 48 47 47 46 47 47 48 45 47 44 49 46 43 43 44 47 39 41 35 31 29 27 28 30 31 27 29 31 21 23 25 21 26 33 27 31 34 37 28 32
53 54 54 54 54 54 55 54 55 55 54 53 53 53 54 49 51 50 51 50 50 52 49 45 43 44 42 36 32 36 36 35 34 32 31 25 27 26 26 26 30 33 37 40 47 46 44
55 55 56 57 57 58 58 59 60 61 61 59 59 58 59 60 55 56 55 56 58 56 50 45 40 48 47 44 42 38 41 40 36 38 32 33 34 27 24 28 29 30 38 45 49 48 48
58 59 59 60 62 62 64 65 66 65 64 64 63 65 65 65 66 65 61 62 61 55 53 54 54 53 51 49 47 42 42 43 38 36 39 36 35 27 31 27 30 33 36 31 44 45 48
62 64 66 67 68 69 71 71 72 74 74 75 71 66 64 66 68 69 70 70 65 58 58 58 59 56 56 56 50 43 41 42 43 40 38 39 40 36 33 32 35 36 31 35 38 47 52
74 74 75 77 79 80 81 80 80 80 80 78 75 73 62 67 69 70 68 67 63 61 62 67 66 65 62 62 62 56 54 42 41 42 39 41 44 41 40 43 39 38 40 43 39 42 45
82 83 84 85 86 86 87 87 88 87 86 86 83 80 66 67 69 71 68 64 63 63 62 65 69 72 70 69 68 69 65 58 31 32 38 41 42 48 47 44 39 37 40 42 49 42 47
86 87 89 90 90 90 90 92 93 94 94 90 87 82 60 63 70 66 65 65 64 65 68 72 75 79 75 73 75 73 70 62 47 50 47 38 48 46 50 49 48 47 40 42 43 44 48
88 90 90 90 92 92 90 87 82 80 77 78 76 69 54 53 61 64 63 71 71 73 77 80 81 84 85 83 80 78 77 68 59 59 54 50 51 57 58 55 49 50 45 42 43 48 44
89 87 85 83 83 79 73 69 62 54 53 50 49 50 47 44 48 57 59 64 66 71 75 77 83 89 89 91 90 85 84 81 72 68 68 64 58 58 58 48 51 52 43 43 46 45 48
77 73 68 65 62 59 53 43 35 24 26 27 26 32 33 31 32 42 46 49 55 60 62 76 77 73 83 90 93 91 90 85 82 77 74 69 66 56 56 55 48 55 50 46 43 39 42
64 60 55 53 51 51 39 26 22 20 20 19 19 19 19 21 25 28 36 46 50 52 53 53 63 77 64 73 92 92 94 92 88 80 68 65 69 58 66 59 50 49 61 52 41 38 36
54 52 47 46 43 38 26 19 16 15 15 15 14 18 18 17 23 26 29 35 45 54 50 57 51 59 61 72 77 91 94 93 91 84 71 68 61 60 68 62 59 62 54 49 44 40 40
48 44 41 40 37 33 23 17 20 16 14 15 18 21 22 19 18 23 29 30 28 31 36 50 62 46 46 57 66 64 82 90 95 89 76 67 59 61 58 70 65 61 54 50 46 44 37
41 41 44 39 35 31 25 20 19 18 19 19 20 21 23 20 17 15 23 26 23 19 23 28 36 51 49 43 43 60 62 77 91 94 78 60 54 57 53 66 73 67 54 48 48 47 44
43 44 40 36 33 29 26 23 20 18 17 18 18 18 20 21 15 18 18 20 22 18 18 21 24 25 40 32 30 51 55 62 80 89 72 62 50 45 47 59 65 66 58 41 45 52 51
42 40 37 31 29 26 24 21 20 17 15 16 19 19 19 19 14 20 20 19 21 21 19 19 13 24 39 16 26 37 49 56 62 83 75 65 59 45 36 45 56 55 55 51 49 54 53
36 33 29 28 27 24 22 20 17 14 11 10 13 13 13 13 8 10 14 15 16 18 21 16 14 14 25 22 17 31 40 50 53 63 82 63 54 51 44 42 47 47 48 57 62 58 59

GFSGBSN_500_spd_027.txt.gz
Wind_Speed
14 15 16 16 17 17 17 17 17 17 16 15 15 15 15 16 15 14 12 10 8 7 6 7 7 7 9 10 9 16 21 19 15 13 13 13 14 15 18 22 21 20 16 7 5 5 3
19 19 19 19 18 18 19 19 20 21 21 20 18 17 17 17 16 15 14 12 10 8 7 5 6 8 10 4 7 9 15 19 18 15 14 14 14 17 26 28 23 23 20 11 9 11 6
19 20 21 22 22 22 21 20 20 21 22 23 22 21 20 20 18 17 16 15 13 10 8 6 5 8 12 6 7 8 9 16 19 18 16 15 22 23 23 24 28 20 15 14 12 9 2
19 20 21 22 23 24 23 23 23 24 24 24 23 23 23 21 21 20 17 14 12 13 13 11 9 9 10 7 13 10 9 11 18 21 19 20 25 24 26 25 28 24 19 18 13 10 6
23 23 24 24 25 26 26 27 28 27 26 25 23 23 25 24 24 23 21 17 15 14 14 13 13 13 15 10 12 10 14 14 15 20 25 25 24 25 26 27 28 27 18 16 14 15 11
30 30 30 30 30 29 30 30 31 30 28 27 27 27 27 27 27 26 27 22 20 19 17 15 14 16 19 13 13 13 17 13 17 19 23 27 26 24 24 24 13 18 17 17 18 18 17
33 34 35 34 35 35 36 36 35 34 34 33 34 34 34 32 30 28 31 30 28 26 23 22 18 19 20 20 16 16 18 15 16 16 17 21 26 24 21 20 20 16 21 22 23 23 15
37 39 40 40 40 40 40 40 39 40 40 41 41 40 39 39 37 34 32 31 32 31 26 27 25 20 25 23 18 19 18 15 14 15 20 20 12 18 25 24 25 25 24 24 26 26 22
40 40 41 42 43 44 45 46 46 45 44 44 44 46 44 45 44 43 41 38 36 35 32 24 30 26 26 30 20 22 19 20 18 20 19 18 13 18 24 26 25 27 26 26 26 30 31
45 45 45 45 45 45 46 47 48 48 49 50 50 49 46 45 45 47 47 46 44 43 39 28 34 33 32 30 25 26 23 21 23 21 21 21 20 21 22 26 28 31 24 31 32 35 37
44 46 47 48 48 50 50 49 50 51 51 52 53 54 52 51 50 48 48 47 47 48 48 39 37 36 37 35 30 26 26 29 29 24 25 15 20 22 23 15 24 20 31 31 35 41 40
48 48 49 51 52 53 53 53 54 54 53 53 54 56 57 56 55 53 53 50 50 49 54 48 45 45 40 38 37 34 36 36 33 33 28 25 27 27 23 22 23 21 33 35 39 43 49
49 51 51 51 52 54 52 53 56 56 58 56 53 56 60 59 59 59 58 59 57 55 53 52 52 50 47 41 40 41 41 39 37 36 30 29 29 28 26 26 28 30 39 44 49 52 42
52 53 55 57 58 57 59 58 60 59 59 58 60 61 61 61 61 62 62 64 64 61 59 57 56 53 50 51 50 47 45 44 42 38 35 38 38 33 29 27 27 29 35 47 50 50 41
60 61 64 66 65 65 64 64 63 63 61 62 67 62 64 65 66 64 68 68 67 66 65 61 59 58 55 53 55 54 54 51 48 44 41 40 39 33 35 32 34 31 40 32 45 47 49
65 66 67 69 71 72 73 75 73 72 72 70 65 67 65 66 68 71 71 71 71 72 70 67 63 64 62 61 59 59 57 57 54 52 47 46 43 37 35 40 43 41 30 38 44 49 48
69 70 73 74 75 76 77 78 79 79 79 79 76 73 71 70 69 69 71 72 73 74 76 73 71 69 68 68 66 63 62 64 60 57 55 53 53 44 45 51 44 42 43 42 44 47 46
71 73 76 78 79 79 78 76 75 74 73 76 77 75 76 73 69 71 72 74 77 78 81 82 82 78 75 74 73 71 68 70 66 64 63 60 59 54 53 48 44 48 47 47 48 40 37
74 76 77 75 72 68 63 58 55 53 53 54 55 56 62 61 57 62 67 71 76 79 81 86 87 86 85 80 78 78 77 74 72 69 70 66 64 60 58 56 57 60 55 50 45 43 46
73 72 70 68 63 57 54 51 52 51 50 49 46 42 38 37 37 48 57 66 72 77 79 83 87 89 89 88 86 85 83 80 77 75 75 73 70 67 63 61 58 60 60 56 51 55 47
68 65 61 55 51 47 47 45 44 41 41 38 35 30 25 17 23 31 44 54 62 65 69 74 80 87 88 88 87 89 90 87 82 82 81 79 77 75 70 66 66 63 62 58 59 56 54
59 55 52 47 42 40 41 41 38 39 34 29 30 26 20 16 14 18 28 35 41 49 56 59 67 79 86 87 88 85 90 92 89 86 84 84 82 80 78 73 69 71 67 60 58 57 55
54 51 48 43 40 40 38 37 37 37 33 28 26 23 19 15 18 14 16 25 31 29 30 38 49 58 72 80 81 85 88 92 93 88 86 85 86 84 83 79 76 74 69 67 64 61 57
48 51 46 41 39 39 37 35 34 32 31 29 26 23 22 18 18 18 18 18 21 28 36 25 27 37 53 64 73 79 83 92 95 94 85 87 88 88 88 82 83 71 68 68 69 67 62
47 45 44 41 40 39 37 35 34 33 31 28 26 24 22 19 17 18 18 18 18 21 24 36 42 24 24 33 49 60 71 82 91 97 97 87 89 89 88 85 83 79 73 67 66 66 64
53 52 50 48 44 41 38 35 33 30 28 27 24 22 21 18 16 16 16 18 16 15 18 23 27 37 48 44 43 47 55 65 80 87 97 96 88 89 87 88 85 82 77 75 69 68 61
47 50 48 45 44 43 41 40 38 36 30 28 25 21 20 18 14 17 15 15 16 13 11 17 20 21 23 26 28 29 35 45 64 77 77 81 94 93 91 90 88 80 76 75 69 73 63
47 50 50 51 46 43 43 43 41 35 32 30 26 22 20 15 14 16 15 14 12 13 10 15 16 18 18 18 20 18 15 26 36 54 64 73 59 89 90 85 83 71 59 56 55 63 64
45 48 50 51 50 46 43 40 40 38 34 28 27 26 22 18 16 15 8 6 8 12 10 10 12 19 21 16 12 10 12 17 20 30 36 56 62 68 78 89 81 64 49 53 42 45 55

GFSGBSN_500_spd_030.txt.gz
Wind_Speed
19 20 20 20 20 21 21 22 22 22 22 22 22 21 21 20 21 21 20 18 16 14 12 11 12 12 16 13 9 14 19 20 18 14 11 9 13 17 20 22 21 21 17 16 10 8 11
20 21 23 23 24 24 24 24 24 24 24 24 25 25 24 23 23 22 21 19 17 16 14 13 11 11 16 13 10 8 12 20 20 18 14 11 14 23 24 27 22 25 23 17 5 9 8
20 21 21 22 23 24 25 25 25 24 23 23 24 24 25 25 25 25 24 21 20 18 16 14 12 13 17 9 11 9 11 13 20 19 17 13 20 25 26 25 27 25 19 16 9 3 10
26 26 26 26 26 26 27 28 28 28 28 29 29 28 27 26 24 26 28 24 22 20 18 17 16 16 19 8 16 13 7 10 15 21 20 20 23 26 30 28 29 26 22 15 9 7 11
28 29 30 31 32 32 32 32 31 31 31 33 33 31 30 28 26 25 27 27 24 22 19 18 18 20 22 13 15 15 14 14 13 15 23 25 22 23 30 28 31 29 22 17 16 12 8
31 32 33 34 35 35 35 36 36 37 36 36 35 34 34 33 30 30 29 30 29 26 23 20 19 21 24 20 19 19 18 16 16 19 18 20 24 23 24 26 13 24 21 20 18 15 7
37 37 37 37 38 39 41 40 40 40 40 40 40 39 39 39 36 35 35 32 33 32 27 27 23 24 24 24 22 22 22 17 17 17 14 16 20 17 19 19 20 22 24 27 20 18 10
41 41 42 43 43 43 43 44 44 45 45 45 45 44 44 45 44 41 39 39 37 37 31 30 31 26 30 29 25 23 23 20 16 14 20 17 4 11 22 24 22 25 24 26 24 23 16
41 42 43 45 46 47 47 48 49 48 48 48 49 49 48 49 49 48 46 45 44 43 39 30 32 32 33 35 28 28 26 24 21 21 19 18 12 16 21 24 24 24 24 26 24 27 23
43 45 46 47 49 49 50 51 52 52 51 52 53 52 51 51 53 52 51 50 49 49 46 40 37 39 37 37 33 30 28 28 26 21 23 21 20 20 19 22 23 24 21 29 30 31 33
41 43 43 45 48 49 49 49 50 51 52 55 56 57 56 53 53 57 57 55 52 51 51 49 44 44 42 42 36 34 30 34 29 25 29 20 19 20 19 11 22 19 26 28 32 36 35
44 46 48 51 52 52 52 52 52 52 52 52 52 54 55 58 57 56 59 60 59 57 57 54 50 46 45 42 40 39 40 37 33 37 35 30 27 28 23 23 22 23 31 34 37 41 45
49 50 52 53 53 55 56 56 57 58 58 58 59 61 59 59 58 59 58 60 62 63 59 58 57 53 49 46 44 40 42 41 39 38 35 30 30 29 27 27 26 29 37 42 47 47 36
59 61 62 62 63 64 63 64 66 66 66 63 64 65 65 63 63 62 63 64 64 65 64 64 63 60 51 51 50 46 45 44 44 44 38 36 37 32 29 25 25 28 36 43 42 38 33
63 66 68 69 70 71 73 73 74 74 74 72 70 69 66 66 66 67 68 67 68 67 68 66 65 66 63 56 52 49 52 47 44 45 43 44 43 37 37 33 32 33 35 31 41 41 41
69 71 72 75 77 79 80 81 81 79 80 79 78 77 75 72 69 69 69 71 70 72 72 71 68 68 69 63 59 57 55 55 54 50 49 49 46 41 36 41 42 40 31 38 43 44 39
71 74 76 79 80 81 82 80 77 70 66 66 67 70 72 72 71 70 70 71 72 76 76 76 74 71 70 69 64 63 62 60 58 58 57 54 53 48 46 49 42 40 42 42 43 43 39
73 76 77 75 73 68 63 57 53 52 50 49 48 52 55 57 62 61 63 67 71 72 80 81 81 79 75 73 72 68 67 67 65 63 62 59 60 55 54 49 45 45 45 46 47 38 35
72 71 69 62 61 57 54 50 46 45 42 40 42 42 42 42 44 45 48 52 63 68 73 80 84 85 82 79 76 73 72 71 70 68 67 65 64 59 57 55 56 57 52 50 47 45 46
66 60 58 61 60 55 51 49 46 42 41 40 42 36 30 29 30 26 28 40 53 62 67 75 82 85 87 86 83 80 76 76 74 74 72 69 69 66 64 58 60 59 57 56 53 54 46
52 55 58 61 60 58 50 46 43 41 39 38 36 32 25 24 25 23 18 25 39 49 54 58 70 80 83 85 86 85 81 79 78 78 77 75 73 71 69 65 63 61 61 60 59 55 53
47 55 59 59 56 56 55 49 42 40 36 35 34 30 23 21 21 21 23 22 18 29 38 43 41 59 76 78 83 83 85 85 83 81 81 80 78 76 73 71 67 65 62 62 61 59 58
50 55 57 55 53 52 52 50 43 40 36 34 31 27 24 18 18 20 21 20 19 17 22 30 49 43 56 72 79 81 85 86 87 86 86 86 84 81 79 76 74 72 64 64 65 63 58
51 52 55 54 50 50 49 50 47 42 41 35 32 25 21 18 16 19 18 18 18 17 11 25 26 36 45 54 62 74 82 86 89 88 89 90 90 88 85 80 80 76 68 67 68 64 61
46 48 50 53 53 52 51 50 50 46 40 40 34 27 22 17 16 18 17 15 14 14 12 13 31 29 22 25 47 58 64 80 83 90 91 90 92 92 92 88 84 81 79 72 69 67 64
44 45 48 55 60 50 49 49 48 47 45 39 38 32 25 20 16 19 17 16 11 11 10 10 14 22 27 20 22 31 45 60 75 84 87 93 90 95 95 94 91 87 81 77 74 71 67
38 42 48 51 58 59 46 44 45 43 43 44 42 35 29 22 17 21 16 10 10 7 7 10 10 13 18 28 33 33 31 34 51 64 78 84 96 95 95 98 97 92 87 83 80 72 67
33 38 44 50 53 58 54 48 41 39 42 43 44 39 33 25 22 17 9 5 5 6 7 8 6 8 11 13 15 18 21 26 35 40 56 74 85 98 99 99 104 94 90 87 84 77 71
29 34 40 47 47 52 59 45 42 38 35 36 38 34 33 30 23 17 8 2 3 4 3 3 4 5 5 8 9 12 11 13 11 15 33 54 76 86 96 109 97 93 88 84 84 82 77

GFSGBSN_500_spd_033.txt.gz
Wind_Speed
19 20 21 21 23 24 24 24 25 25 25 25 24 24 23 23 24 24 23 21 20 20 20 17 16 17 18 14 8 16 16 18 20 16 11 13 20 19 19 21 17 20 23 22 14 9 10
20 21 21 21 22 23 24 25 25 25 25 25 25 23 23 23 24 25 25 22 22 22 21 20 18 17 20 15 9 12 13 16 20 19 15 12 18 25 24 24 21 23 23 23 10 4 11
22 23 24 25 26 27 27 26 26 26 27 27 27 26 26 25 24 25 25 24 24 23 22 21 20 19 21 13 11 15 12 15 14 21 20 18 21 28 27 26 25 27 23 19 10 4 14
24 25 26 27 28 30 31 31 31 31 31 30 30 31 32 31 29 27 25 25 24 24 25 24 23 21 24 14 13 18 9 11 15 17 22 23 23 29 32 28 29 28 22 16 13 6 11
30 31 32 32 33 33 33 34 34 35 36 35 35 35 34 32 31 31 28 27 25 24 25 25 25 25 26 22 16 20 16 18 15 14 17 23 25 23 27 28 27 26 22 20 17 12 13
34 35 36 37 38 39 39 39 39 39 39 40 40 39 39 39 36 34 34 32 29 27 25 26 25 26 27 27 21 21 21 18 18 19 17 16 21 24 22 22 19 16 21 23 20 15 14
36 37 38 40 41 42 42 42 42 44 46 45 43 43 44 43 42 39 39 37 36 33 29 29 27 29 27 27 26 24 27 22 21 18 14 15 17 13 22 23 24 20 26 28 25 22 17
36 38 39 40 41 43 44 46 47 48 48 49 49 49 47 48 48 46 43 44 42 40 35 32 32 29 32 31 31 28 27 24 20 17 19 17 5 11 20 26 26 28 23 28 30 26 23
37 38 39 40 41 43 44 45 46 47 49 51 52 51 50 51 52 52 51 49 47 46 44 37 35 33 36 37 36 32 31 29 25 24 19 16 16 20 22 27 28 27 27 26 30 33 28
42 41 41 43 44 45 47 48 50 52 52 52 51 52 53 50 53 56 55 54 53 51 50 46 42 41 40 41 38 36 36 34 31 24 25 23 21 23 23 21 26 29 26 30 34 35 32
44 44 45 49 51 50 52 52 53 54 55 56 55 54 52 51 49 53 57 58 56 56 53 54 50 47 43 45 40 38 36 39 35 29 31 19 20 20 21 14 22 23 29 32 33 37 37
46 49 53 55 57 60 62 62 63 63 61 60 60 59 59 57 56 54 54 57 60 58 60 58 54 50 46 45 46 43 43 42 39 37 37 33 31 31 22 26 24 27 35 35 37 38 43
56 61 64 66 68 69 70 71 72 71 69 68 69 66 63 60 60 60 60 59 60 62 62 60 60 57 51 48 46 45 47 47 45 42 42 38 36 30 31 30 30 32 38 42 42 43 32
62 66 70 71 73 75 78 79 79 80 79 77 75 73 71 68 66 64 62 64 65 65 65 65 62 60 54 53 51 46 46 48 48 47 46 40 42 35 31 27 27 29 35 37 36 33 37
67 68 70 72 75 77 76 73 70 70 71 68 69 71 76 73 72 68 66 64 67 70 68 65 65 63 59 56 52 51 51 48 46 45 47 46 45 40 36 31 32 31 35 27 39 36 35
65 67 70 74 70 61 59 58 59 58 55 51 48 44 48 54 62 68 67 66 67 69 71 72 69 68 64 61 58 55 53 55 53 53 50 49 50 46 41 40 41 37 32 37 39 39 34
67 69 69 60 54 55 58 55 55 55 54 47 46 45 43 40 37 48 56 58 60 68 70 74 75 73 71 66 61 59 61 60 57 55 55 52 53 50 49 49 45 42 42 40 37 38 34
66 67 55 50 55 58 56 52 55 54 53 48 43 43 41 41 39 30 35 45 50 60 69 71 77 78 75 72 67 63 64 66 64 60 57 58 56 53 52 50 46 45 44 44 44 37 32
62 52 46 49 56 55 55 56 57 55 54 51 41 39 39 36 31 21 20 24 35 47 59 69 74 78 78 74 70 69 66 68 67 66 63 61 62 57 54 55 53 52 51 48 45 43 44
52 44 44 52 58 58 57 57 55 54 52 47 43 35 34 32 29 20 16 16 18 35 48 59 69 74 76 77 74 74 72 72 71 69 69 67 65 62 60 58 57 56 54 50 49 52 42
39 42 47 53 59 61 56 56 53 54 54 49 45 35 31 28 27 21 16 15 13 14 28 44 47 63 68 74 76 76 76 76 75 74 73 72 70 68 65 65 64 62 59 58 56 50 49
36 41 46 50 58 60 60 57 52 52 52 52 45 42 31 26 26 22 19 15 14 12 11 20 36 30 39 68 74 75 79 79 79 78 77 76 75 74 71 70 68 66 64 62 58 54 53
36 37 43 51 55 58 63 54 52 49 49 49 50 47 36 28 24 24 21 18 15 11 9 6 24 38 26 33 60 76 78 82 82 82 81 80 79 77 75 73 72 71 64 63 60 57 55
39 34 39 47 54 58 66 53 50 49 45 45 47 49 44 32 27 25 20 19 16 12 8 12 17 37 37 33 36 55 74 79 85 83 84 82 82 81 79 77 77 71 69 69 66 62 59
41 33 35 42 51 55 59 56 51 52 47 44 43 44 46 38 32 26 26 17 15 11 9 10 11 21 30 37 37 39 45 72 80 85 86 85 85 84 83 81 79 78 73 71 69 65 63
41 30 33 38 46 52 57 62 53 48 50 44 42 41 41 41 37 23 18 14 9 8 8 9 9 13 28 25 27 34 42 47 66 79 85 88 88 89 88 86 86 78 75 74 72 68 64
41 33 33 35 42 49 52 59 55 36 44 43 40 37 37 37 36 28 18 11 5 3 6 6 6 10 15 25 24 15 18 28 44 60 77 85 92 92 91 91 90 85 80 77 75 69 67
39 37 32 32 40 45 50 55 49 40 38 42 38 36 33 34 32 29 20 11 7 3 3 5 4 4 9 13 19 26 25 28 34 38 50 73 86 95 97 97 95 88 83 82 77 71 67
41 36 30 29 37 44 47 51 54 48 43 43 39 35 32 32 30 24 24 16 10 6 5 6 3 0 4 7 9 10 13 12 16 21 37 54 71 82 96 101 94 94 91 83 82 78 74

GFSGBSN_500_spd_036.txt.gz
Wind_Speed
18 19 20 20 20 21 21 21 22 23 24 24 25 24 24 23 23 23 23 23 23 23 23 20 20 20 18 18 10 13 16 18 22 20 18 24 24 19 16 20 25 20 20 17 13 12 12
19 20 21 22 23 24 25 26 26 25 24 24 25 25 25 23 21 21 23 23 25 25 23 21 21 22 21 20 14 16 13 15 20 24 21 19 25 28 25 26 23 23 24 21 17 11 11
23 23 24 24 25 26 27 28 29 29 29 30 29 28 27 27 29 27 26 25 26 26 24 23 22 22 23 20 16 17 16 16 17 24 26 24 26 29 31 28 28 24 24 26 21 11 13
28 29 30 31 32 32 33 33 33 33 33 33 33 33 33 31 29 28 27 28 27 27 26 25 25 24 24 24 21 19 21 14 16 18 28 28 27 30 33 31 29 28 25 25 25 12 17
29 31 32 33 34 35 37 38 39 39 39 38 38 38 38 37 36 34 32 30 29 29 27 26 26 26 26 28 24 22 23 20 20 16 18 28 28 26 27 31 30 28 26 27 26 15 17
29 30 31 32 34 35 37 39 41 42 43 42 42 44 45 43 41 40 38 36 34 32 32 29 28 29 27 27 29 25 26 23 23 20 19 20 27 28 25 24 25 25 28 29 28 19 17
29 31 32 34 35 35 36 37 39 40 40 40 42 44 47 48 48 45 44 42 40 39 36 35 30 31 29 28 31 30 28 28 25 22 19 16 19 18 23 24 24 26 26 28 29 27 23
30 34 34 35 36 37 39 41 43 44 43 44 44 43 44 46 50 51 50 49 47 45 41 39 38 33 32 32 33 33 32 31 26 20 22 20 10 17 24 30 26 26 23 27 32 32 26
34 37 39 38 37 40 43 46 47 48 48 50 49 48 50 50 49 49 51 52 53 50 49 43 43 39 39 37 36 35 34 31 30 31 24 19 21 23 26 30 32 27 28 28 33 35 31
40 43 45 45 47 50 52 53 54 54 55 57 56 55 54 53 54 54 53 51 53 55 55 50 48 47 45 44 41 39 37 37 35 31 27 28 28 29 28 30 32 32 29 34 37 40 35
45 46 48 51 55 59 60 61 63 65 67 67 64 64 64 61 57 58 59 56 53 53 55 59 51 51 49 50 45 44 39 43 39 35 35 26 27 24 25 18 27 26 35 36 37 39 39
47 52 56 59 64 68 70 73 76 79 81 82 80 77 72 68 66 61 60 63 60 56 59 60 56 52 49 52 53 49 46 45 42 40 40 34 33 35 27 31 26 31 38 37 38 39 46
52 59 63 67 71 73 76 77 77 75 73 71 72 74 77 78 71 69 65 62 64 65 60 61 61 58 53 52 54 53 51 51 49 45 42 40 40 36 36 36 34 34 40 42 45 47 44
60 64 66 68 71 72 66 62 58 50 47 53 57 56 55 54 57 58 62 66 64 67 71 64 60 57 52 55 52 53 52 54 54 49 46 43 44 40 38 35 32 34 37 42 46 41 39
63 63 65 67 67 60 53 44 37 44 50 58 60 61 55 50 43 40 42 52 55 70 73 68 65 62 57 54 53 56 51 52 53 53 51 48 45 43 40 37 36 33 39 32 41 42 35
61 62 64 63 52 46 44 41 49 54 54 56 54 59 53 41 36 36 34 36 47 61 66 65 62 68 66 62 56 56 57 57 55 54 58 56 52 51 45 42 42 40 31 39 42 43 38
59 60 61 49 42 44 46 46 50 52 51 54 52 58 53 39 33 33 29 30 35 48 62 65 66 70 68 63 60 60 64 62 59 60 61 59 55 55 53 49 48 48 46 42 38 35 32
58 57 50 39 43 45 49 49 49 50 47 49 49 53 55 39 33 29 30 26 26 37 53 59 66 68 68 67 63 63 65 66 65 63 57 57 58 59 54 52 52 47 44 42 41 33 31
53 50 44 40 43 48 51 56 59 53 50 48 47 45 50 46 33 29 29 24 21 24 41 51 57 67 69 68 67 70 70 68 67 66 65 63 59 58 57 57 57 55 49 49 46 38 34
47 43 45 39 41 45 52 56 57 53 51 47 46 45 47 44 38 29 24 22 20 20 22 42 48 60 66 65 68 71 73 72 71 70 66 64 64 62 58 47 53 57 56 54 50 45 40
45 42 45 39 39 45 50 56 57 53 50 47 43 43 44 43 38 32 25 21 17 17 13 15 27 25 59 63 69 69 76 75 75 73 71 69 66 66 63 64 61 59 58 55 56 47 46
46 45 44 37 35 41 51 55 60 52 46 45 43 42 40 40 39 31 24 19 16 15 13 9 19 27 23 51 68 70 76 79 79 77 76 73 72 71 67 64 64 64 61 60 58 50 48
46 41 44 33 34 40 49 55 57 51 48 43 42 39 38 40 36 33 22 18 17 13 14 12 13 35 27 30 54 71 75 74 81 80 80 77 76 74 69 66 66 68 64 59 60 55 52
46 41 43 35 33 38 46 53 57 58 47 43 39 38 34 37 35 34 25 15 12 12 11 12 7 24 36 25 25 57 74 76 76 81 81 80 78 75 74 75 73 67 65 65 62 56 53
45 42 39 39 32 37 42 50 55 57 59 46 40 37 32 33 32 34 29 20 13 8 8 11 7 9 28 35 24 28 46 76 79 76 80 82 80 78 77 78 70 74 72 70 68 65 61
43 43 40 40 31 34 41 49 54 57 57 53 38 36 31 31 29 32 27 21 13 8 7 8 7 6 8 28 27 25 17 31 71 81 80 78 83 82 80 79 79 72 75 76 74 69 64
43 43 42 40 30 33 39 47 53 56 54 49 39 31 35 34 27 27 27 20 13 10 10 7 5 5 4 14 19 22 32 39 45 67 79 83 81 85 83 84 82 83 82 80 74 67 68
42 42 42 39 33 32 38 44 50 54 52 46 37 34 33 30 30 26 25 22 15 11 9 8 6 4 2 6 12 20 21 27 42 47 65 84 88 85 86 87 88 84 84 83 74 76 73
40 41 42 40 38 32 36 42 48 49 48 44 33 30 25 30 31 29 25 20 17 13 12 9 6 5 3 2 5 10 14 18 23 33 48 62 81 92 92 93 87 89 88 84 81 81 73

GFSGBSN_500_spd_042.txt.gz
Wind_Speed
20 21 21 22 23 24 25 25 26 26 27 26 26 26 26 26 25 25 25 25 23 21 22 23 23 20 20 17 19 15 19 18 19 22 21 22 20 17 16 19 20 16 15 17 4 2 16
20 21 22 23 24 25 26 27 29 30 31 31 32 32 31 30 29 30 30 28 26 26 26 26 26 22 22 18 19 17 19 19 19 21 26 25 23 22 24 21 22 18 19 20 4 15 12
20 21 22 22 23 24 24 26 27 29 30 32 33 34 34 35 35 34 33 34 33 30 28 29 29 26 22 26 21 19 22 21 20 21 24 27 28 29 25 24 20 22 27 21 15 16 14
20 21 21 22 22 23 23 24 25 26 27 27 28 30 31 33 36 37 38 39 37 36 35 32 30 29 21 30 23 22 23 20 21 22 24 30 32 29 31 28 27 26 31 29 24 18 16
21 22 23 24 25 25 26 27 29 31 32 32 32 33 34 34 33 34 37 39 42 41 40 38 36 33 26 29 25 28 24 23 24 23 24 27 34 32 34 34 32 32 29 28 18 22 15
22 21 22 24 27 29 30 32 33 36 38 39 40 41 42 43 42 40 38 37 39 43 44 44 41 38 35 31 32 28 28 27 26 26 27 27 29 37 37 35 28 29 31 24 19 22 20
22 24 27 30 33 32 33 36 39 42 43 44 46 48 48 48 46 47 47 46 43 42 42 46 47 42 40 35 35 33 32 32 31 31 28 28 32 30 32 32 30 27 28 27 20 24 28
25 27 30 31 34 36 39 42 44 45 47 51 53 53 51 53 54 53 51 50 52 50 42 42 45 45 45 43 40 38 38 36 34 31 31 34 26 22 29 36 35 32 27 23 21 24 22
28 30 32 34 36 39 41 43 47 52 55 57 59 62 65 65 64 63 61 60 57 54 54 42 46 45 44 51 43 43 43 37 34 35 33 30 23 28 27 35 37 33 32 28 23 25 28
33 35 38 40 43 46 49 51 55 59 61 63 64 63 61 62 68 67 69 69 66 64 58 55 53 52 47 50 52 46 47 43 41 38 32 34 32 32 29 30 36 39 29 32 30 30 30
36 37 40 43 47 51 56 57 61 61 60 56 48 41 31 30 30 32 42 52 63 67 55 39 58 54 54 52 47 49 48 50 47 37 41 37 35 36 34 28 33 36 35 36 38 31 29
40 43 46 50 54 57 58 59 58 56 51 43 35 28 38 38 40 38 44 44 44 45 33 20 51 55 61 54 51 53 52 52 46 43 45 39 38 40 32 31 32 25 34 32 36 33 45
44 47 52 55 56 55 54 54 52 44 35 35 35 37 39 47 48 46 43 43 43 39 22 23 47 60 63 64 54 55 58 59 58 57 54 45 45 40 37 35 35 35 37 38 40 48 49
49 51 53 53 53 51 49 50 48 38 34 38 43 40 44 49 48 45 44 43 40 30 23 40 54 54 56 58 56 44 57 61 57 59 52 49 49 45 43 43 37 40 40 45 47 45 38
48 50 51 51 47 47 46 49 49 35 36 40 46 47 48 49 44 44 40 37 28 33 27 30 57 45 42 41 52 47 52 60 61 59 59 53 50 40 44 43 44 43 45 35 32 28 27
48 48 49 47 46 47 48 52 44 30 35 42 47 52 53 56 48 41 35 33 26 33 30 33 56 52 43 42 56 50 47 50 49 60 59 57 33 46 39 43 43 45 34 39 40 33 30
48 46 46 43 45 47 49 49 33 31 36 42 48 55 61 57 47 37 32 24 30 33 32 35 36 63 50 51 59 58 51 51 48 39 52 61 49 35 35 45 49 47 44 41 37 36 28
47 46 45 42 44 47 46 45 37 38 38 46 49 56 63 50 32 25 17 34 34 32 33 35 26 39 65 51 57 61 59 60 59 58 57 57 63 50 39 39 42 49 48 43 43 40 33
45 46 46 44 44 47 48 46 38 39 42 47 53 58 56 37 31 31 31 31 27 29 30 23 22 23 54 61 51 58 59 64 66 65 63 60 71 60 45 39 41 49 51 50 38 34 36
44 46 45 44 45 47 48 48 39 39 46 51 56 56 36 36 36 34 31 23 23 19 22 15 17 26 37 67 57 49 56 45 64 69 71 70 71 70 61 51 38 49 46 46 47 41 36
44 46 43 45 45 47 46 46 40 42 46 52 50 43 35 41 37 35 27 25 28 23 24 16 20 18 16 57 68 46 45 51 56 72 73 72 68 71 60 41 29 41 43 46 49 40 39
44 47 43 46 45 44 45 42 39 39 45 44 39 37 34 35 36 32 25 19 30 24 24 20 25 21 18 29 54 55 40 39 49 64 74 74 67 69 68 53 44 45 40 41 43 45 32
45 44 44 44 41 41 42 38 34 40 44 40 37 36 36 39 40 33 26 26 26 22 19 14 17 25 24 30 33 54 43 31 47 58 69 70 68 73 74 60 51 41 47 39 39 38 39
45 42 42 41 38 39 37 30 35 40 40 38 39 38 38 39 41 42 26 24 22 18 15 12 11 13 20 31 29 57 44 32 37 53 66 68 72 73 66 65 54 50 52 51 38 39 38
44 41 43 41 38 36 33 26 33 37 36 40 41 43 40 38 42 40 36 25 18 17 13 11 11 7 14 21 28 33 64 37 38 41 60 68 70 71 68 66 63 56 56 58 51 42 37
42 41 41 38 37 34 28 24 31 34 33 37 38 40 42 44 41 43 36 30 21 16 13 7 10 7 3 2 26 16 33 31 36 38 54 61 66 68 67 60 58 39 34 43 54 50 50
42 42 38 37 37 33 24 22 29 31 31 33 36 42 42 41 40 38 35 31 25 16 13 8 6 6 9 7 22 24 37 26 21 26 40 54 61 65 61 67 38 54 40 44 48 52 63
42 42 39 36 34 27 19 21 27 26 25 30 32 38 37 36 37 35 34 32 28 22 14 5 4 5 10 12 23 27 24 29 37 20 26 39 48 56 62 62 46 30 45 48 50 52 64
44 39 34 29 23 19 16 22 26 19 23 26 30 33 32 35 31 27 32 32 30 27 21 23 15 7 9 13 19 22 27 19 40 35 17 23 37 47 52 68 59 38 46 56 61 60 59

GFSGBSN_500_spd_045.txt.gz
Wind_Speed
18 18 19 19 20 21 23 23 24 25 26 27 28 29 29 29 29 28 28 27 25 24 23 23 20 16 16 14 23 16 20 18 17 19 20 21 19 18 16 18 20 19 13 5 11 12 12
19 19 19 20 20 21 22 23 23 24 25 25 26 27 28 29 30 31 32 33 31 29 28 27 26 23 17 14 23 16 21 21 19 18 23 23 20 21 24 21 18 18 15 9 8 15 5
19 19 20 20 20 21 22 22 23 24 24 24 24 24 24 24 25 27 30 32 34 34 34 32 31 27 18 23 21 19 22 23 21 20 21 26 28 28 28 24 21 23 19 15 18 9 4
19 19 20 20 20 21 23 24 25 25 26 27 27 28 29 29 29 29 28 27 31 34 36 38 37 32 22 30 23 20 23 27 23 24 24 27 32 31 32 29 29 26 25 27 18 25 11
18 19 18 19 21 24 26 27 27 28 30 32 34 35 36 38 38 38 38 37 35 34 34 37 39 39 31 32 28 28 25 27 26 27 27 29 32 32 36 35 34 31 28 27 26 18 13
17 17 20 23 25 27 30 32 34 36 38 39 40 40 41 42 43 43 44 43 42 41 39 39 37 38 40 36 37 32 29 29 30 31 30 29 32 35 38 38 32 30 31 26 27 24 23
20 23 25 27 29 32 34 37 40 42 44 45 45 47 49 48 48 46 46 47 49 48 48 46 43 36 37 38 40 38 34 33 33 35 31 31 36 31 27 32 31 31 32 27 25 27 18
23 26 29 32 35 37 39 41 43 46 48 49 51 52 52 55 56 56 55 54 53 51 47 52 50 45 42 41 43 40 41 40 37 31 35 40 32 24 26 31 35 35 33 26 21 23 21
27 29 30 32 34 37 41 44 47 50 50 52 54 56 57 58 59 61 61 63 65 63 58 55 51 52 47 49 39 42 45 43 42 35 38 37 22 31 31 33 37 38 33 23 26 20 28
30 33 37 39 42 45 48 51 55 55 55 54 54 55 53 43 45 38 35 38 44 56 47 53 59 53 57 55 50 42 45 47 49 44 38 36 34 37 35 33 32 34 31 26 29 27 35
35 38 40 43 46 50 53 55 57 55 52 53 52 45 35 37 28 30 30 32 29 32 30 29 47 50 57 58 52 44 47 50 52 49 44 37 37 40 39 32 30 29 34 32 34 36 24
40 43 46 47 49 52 54 54 52 51 51 52 46 34 32 36 34 37 37 35 33 33 28 24 44 44 49 62 61 53 55 55 48 52 50 45 39 42 37 32 35 29 37 40 43 43 45
45 47 48 51 53 56 54 52 51 53 52 48 32 28 32 36 38 42 43 40 39 36 31 20 31 42 43 52 63 63 58 56 59 58 59 52 47 43 42 39 38 34 38 41 51 56 52
46 49 52 53 54 54 52 49 49 51 53 41 27 31 36 42 46 46 50 46 40 35 35 30 26 36 40 46 58 66 69 62 57 58 56 55 52 51 47 45 42 37 36 41 49 54 44
51 53 54 55 53 51 48 47 46 50 51 37 32 37 42 48 53 57 61 47 34 35 40 31 31 32 39 44 50 64 68 68 63 56 61 59 56 45 46 44 43 39 45 40 41 43 52
52 54 54 52 49 48 46 47 47 48 50 37 34 41 46 52 59 52 40 37 25 33 41 29 32 35 32 44 46 57 58 66 66 57 54 57 54 47 41 41 44 45 34 41 41 41 43
54 54 52 48 47 47 47 47 49 46 40 34 37 46 50 49 37 35 36 37 32 37 38 33 32 35 39 42 44 47 49 52 66 60 56 58 56 54 38 46 49 48 44 40 37 39 34
54 53 48 45 46 46 47 47 47 43 34 36 42 48 49 37 31 37 42 33 32 40 42 38 29 33 39 46 50 53 58 54 61 60 63 58 64 58 57 49 43 44 47 40 43 38 36
56 51 45 45 44 47 46 45 41 39 35 40 45 37 38 36 38 38 37 29 26 30 26 21 25 32 33 34 47 60 57 54 58 60 67 63 68 61 57 54 51 42 46 47 40 36 40
57 48 43 43 47 47 45 41 37 33 35 38 39 39 40 44 45 44 43 29 23 25 26 24 24 24 26 26 21 67 61 56 53 57 71 72 73 72 62 60 52 47 39 44 47 43 37
53 44 42 44 45 44 42 36 32 30 36 35 39 42 45 51 40 42 46 39 23 23 19 29 26 27 22 25 28 29 72 46 47 57 65 72 76 76 66 61 58 45 45 39 47 46 40
45 43 43 44 42 42 40 33 27 29 34 35 40 43 43 45 44 40 44 38 25 22 25 21 23 22 22 29 26 41 71 39 44 54 64 72 72 78 70 61 49 43 40 40 38 46 40
39 42 44 42 40 40 37 31 26 29 32 35 41 41 45 42 40 40 41 37 29 26 17 18 17 16 24 20 25 25 56 42 34 53 63 72 70 76 70 60 53 46 41 34 26 36 45
35 43 46 41 38 37 35 27 24 28 32 34 39 41 40 38 37 36 38 37 34 26 15 14 15 15 14 13 23 33 51 46 26 47 61 73 75 75 74 65 60 45 46 50 38 19 36
38 43 44 43 39 36 31 25 21 27 31 32 34 39 39 38 36 31 34 36 33 31 19 13 12 9 13 15 18 17 47 35 17 40 56 70 72 71 71 67 61 49 45 39 44 40 46
42 45 46 41 35 29 23 20 21 27 28 29 33 39 39 40 37 30 30 31 31 28 23 12 11 2 6 6 8 12 40 28 16 27 59 62 71 69 74 63 61 56 56 51 50 50 51
43 40 38 33 28 22 19 18 24 26 24 29 34 37 37 36 29 29 27 26 27 26 27 8 5 4 8 8 18 9 21 21 11 14 48 60 65 65 71 59 55 61 63 57 53 52 59
32 29 28 25 21 20 20 23 23 20 26 30 33 34 35 32 29 37 24 18 22 26 29 27 7 8 8 13 21 20 28 21 18 17 24 35 59 64 60 74 56 61 59 67 66 63 62
23 25 27 24 24 26 24 19 19 19 25 30 29 32 33 34 36 37 31 24 17 18 22 27 24 8 6 8 18 15 36 27 23 25 25 29 46 67 67 56 71 52 63 76 71 71 69

GFSGBSN_500_spd_048.txt.gz
Wind_Speed
14 15 16 17 18 19 19 20 21 21 22 22 23 23 24 25 26 26 26 27 27 26 25 24 20 16 13 11 25 16 19 18 16 20 24 23 21 21 15 18 18 18 19 12 18 12 9
14 15 16 17 17 17 17 18 18 19 20 21 21 21 22 22 22 22 24 26 28 28 28 29 27 21 15 19 25 16 21 20 20 20 24 25 23 23 25 23 18 21 21 21 22 8 8
14 15 16 16 16 16 16 18 20 21 21 21 21 22 23 23 24 24 24 25 25 26 28 30 31 28 19 29 25 18 21 23 21 22 22 26 32 31 29 28 26 27 27 25 22 13 10
13 13 14 14 15 18 20 21 22 24 25 27 29 31 31 32 32 32 31 31 30 30 29 28 29 30 24 33 27 23 25 26 27 25 26 28 33 34 35 30 32 31 28 24 26 21 13
13 13 14 17 20 21 23 26 28 30 32 33 36 37 39 40 40 39 38 38 35 35 36 34 31 28 27 34 36 31 27 30 31 30 31 33 35 33 40 36 37 35 27 23 23 22 23
17 18 20 23 25 27 29 30 32 34 36 39 40 42 45 46 47 47 47 46 45 43 44 41 38 35 32 31 36 36 32 34 32 36 36 34 36 36 39 42 37 32 30 28 22 21 21
21 21 23 24 26 29 31 34 36 38 40 42 44 46 47 47 48 47 48 49 48 45 50 47 45 40 39 39 36 41 40 40 39 39 35 37 40 35 27 32 33 37 35 32 23 23 18
23 25 27 29 32 34 36 38 40 42 46 49 51 49 51 52 51 51 52 52 54 54 53 50 51 48 49 45 42 43 44 45 44 38 38 45 39 25 31 34 35 41 38 32 26 28 24
28 29 31 33 36 38 40 41 43 46 47 48 48 53 55 55 55 57 58 57 56 58 56 59 57 52 48 51 48 48 47 45 48 44 44 43 31 34 34 34 35 40 40 31 27 29 30
30 33 36 38 39 41 43 46 49 51 54 57 57 54 60 45 48 41 46 43 45 41 46 53 51 52 51 55 57 60 57 52 52 50 48 46 37 41 40 37 34 37 31 34 28 38 39
34 35 37 39 40 43 45 51 53 53 55 58 56 53 52 47 33 27 27 28 29 28 34 40 37 38 50 52 62 63 64 63 55 55 56 49 42 43 44 34 34 27 35 40 31 43 41
36 38 40 42 44 47 50 53 55 56 51 52 53 51 46 39 31 29 31 32 29 31 35 37 32 31 33 44 60 64 67 68 62 58 59 54 49 48 43 38 39 33 38 44 39 48 52
38 41 43 46 49 51 53 55 55 53 50 47 49 49 43 30 32 37 38 42 42 45 42 39 34 37 34 40 48 50 65 69 68 66 65 63 58 54 47 44 45 41 42 51 52 60 58
42 44 46 49 52 53 53 52 51 50 49 47 46 49 36 29 34 40 48 46 40 36 34 39 41 37 37 33 46 43 56 59 68 69 69 68 64 59 54 51 44 43 47 53 59 59 55
44 46 48 50 53 54 52 47 47 47 47 43 43 35 30 33 42 46 37 27 30 40 41 28 28 40 43 42 33 46 53 42 53 70 73 69 67 58 55 49 48 42 49 44 54 56 52
46 48 48 53 56 52 48 47 45 44 44 41 33 32 36 34 34 33 30 36 42 42 34 30 38 38 40 48 41 41 56 51 44 64 72 72 74 65 55 48 49 47 41 41 48 53 59
48 51 54 57 56 48 46 43 44 41 39 33 30 30 34 37 39 40 38 38 37 36 33 33 31 35 37 45 44 42 48 59 55 55 64 71 77 68 54 58 53 53 50 45 40 47 50
51 54 57 59 51 41 43 45 43 39 32 29 29 30 36 38 38 35 32 32 35 31 29 26 29 38 45 38 42 45 45 61 52 56 51 67 77 73 63 55 53 49 52 45 44 48 45
56 55 57 57 45 40 43 42 40 36 28 28 27 29 39 41 41 32 31 31 33 32 30 27 30 29 28 31 37 43 47 47 70 57 54 50 72 71 67 58 60 52 51 49 45 37 40
56 57 57 49 40 42 40 38 36 34 27 29 29 33 37 43 43 39 32 28 27 31 28 28 26 27 26 32 38 43 45 52 66 51 58 61 67 72 73 65 55 57 54 54 50 45 39
57 58 48 39 42 44 39 35 34 31 27 31 30 31 41 47 38 39 35 29 24 24 26 28 25 31 28 28 31 39 42 57 65 44 62 61 61 70 74 71 62 62 54 54 55 46 44
55 47 40 44 45 46 41 34 33 28 27 32 31 34 37 44 44 41 33 28 27 26 26 21 25 23 23 22 28 31 33 37 73 46 32 59 61 71 72 68 63 60 57 50 45 45 40
42 38 42 46 43 40 34 27 25 22 26 33 30 34 39 45 44 42 33 28 25 27 23 19 17 18 19 17 22 18 34 32 75 44 30 59 66 70 72 66 63 57 53 49 43 32 38
35 40 41 37 35 28 23 22 21 21 30 32 32 38 41 43 43 39 36 27 25 26 27 15 13 11 18 14 15 15 24 31 58 30 38 58 69 70 67 66 66 58 50 50 47 39 32
35 33 27 26 25 23 23 22 22 26 27 31 35 38 41 43 41 38 36 24 23 25 28 14 13 14 15 13 11 6 6 39 39 23 41 56 70 72 60 68 68 61 50 47 52 48 42
26 20 21 24 25 25 26 26 27 25 27 32 33 36 39 41 43 42 37 30 21 24 28 12 5 7 13 3 22 16 17 11 39 21 38 53 67 74 68 60 68 67 58 57 58 53 46
16 20 23 24 27 29 26 22 23 22 28 30 33 34 35 40 46 44 38 33 27 24 26 27 10 12 4 12 9 14 17 17 16 22 34 57 68 71 75 65 67 70 63 63 54 58 54
19 23 25 27 28 24 20 19 21 23 24 28 30 34 33 38 42 40 40 41 36 30 22 23 14 11 3 7 26 26 28 23 16 11 39 60 62 74 75 78 66 73 58 55 60 64 58
21 23 24 25 24 20 16 18 20 21 22 23 29 30 33 35 43 44 45 47 41 34 28 20 16 9 5 2 20 27 30 27 18 16 24 41 61 69 73 84 71 69 70 50 69 66 58